Location: Écuvilly
(49.6505°N, 2.9206°E)
Time: 16:26:51
(UTC+00:00)

Cosmos 1725 Rocket - Pass Details

Date: 17 November 2025
Orbit: 961 x 989 km, 82.9° (Epoch: 12 December)

Event Time Altitude Azimuth Distance (km) Brightness Sun altitude
Rises 17:00:59 0° 196° (SSW) 3,669 7.5 -9.4°
Reaches altitude 10° 17:03:30 10° 199° (SSW) 2,729 6.9 -9.8°
Maximum altitude 17:09:44 67° 282° (WNW) 1,065 4.5 -10.8°
Drops below altitude 10° 17:16:03 10° 5° (N) 2,760 6.2 -11.8°
Sets 17:18:37 0° 9° (N) 3,714 6.8 -12.2°
